Kiana, AK

3:04 AM AKDT on September 21, 2017 (GMT -0800)
Baker Memorial

Weather History for PAIK - October, 2013

Change the Weather History Date:

Thursday, October 3, 2013

  Actual Average (PASK) Record (PASK)
Temperature  
Mean Temperature 32 °F -  
Max Temperature 32 °F 34 °F 46 °F (2010)
Min Temperature 28 °F 26 °F 21 °F (1996)
Degree Days  
Heating Degree Days 32    
Moisture  
Dew Point 23 °F    
Average Humidity 68    
Maximum Humidity 78    
Minimum Humidity 57    
Precipitation  
Precipitation 0.00 in - - ()
Sea Level Pressure  
Sea Level Pressure 30.04 in    
Wind  
Wind Speed 7 mph (NNW)    
Max Wind Speed 12 mph    
Max Gust Speed 16 mph    
Visibility 10 miles    
Events      
Averages and records for this station are not official NWS values.
T = Trace of Precipitation, MM = Missing Value Source: NWS Daily Summary

Daily Weather History Graph

Daily Weather History Graph

Search for Another Location

Airport or City:

Trip Planner

Search our weather history database for the weather conditions in past years. The results will help you decide how hot, cold, wet, or windy it might be!

Date:

Astronomy

Oct. 03, 2013 Rise Set
Actual Time 9:01 AM AKDT 7:57 PM AKDT
Civil Twilight 8:08 AM AKDT 8:50 PM AKDT
Nautical Twilight 7:06 AM AKDT 9:52 PM AKDT
Astronomical Twilight 5:57 AM AKDT 11:00 PM AKDT
Moon 7:31 AM AKDT (10/3) 7:16 PM AKDT (10/3)
Length of Visible Light 12h 41m
Length of Day
10h 55m
Waning Crescent, 2% of the Moon is Illuminated
Oct 3
Waning Crescent
Oct 4
New
Oct 11
First Quarter
Oct 18
Full
Oct 26
Last Quarter

Hourly Weather History & Observations

Time (AKDT) Temp. Windchill Dew Point Humidity Pressure Visibility Wind Dir Wind Speed Gust Speed Precip Events Conditions
12:01 AM 32.0 °F 24.2 °F 21.9 °F 66% 30.12 in 10.0 mi North 9.2 mph - N/A   Overcast
1:01 AM 30.9 °F 24.3 °F 24.1 °F 76% 30.12 in 10.0 mi NNE 6.9 mph - N/A   Overcast
2:01 AM 32.0 °F 24.8 °F 23.0 °F 69% 30.11 in 10.0 mi North 8.1 mph - N/A   Overcast
3:01 AM 30.9 °F 22.8 °F 23.0 °F 72% 30.11 in 10.0 mi North 9.2 mph - N/A   Overcast
4:01 AM 30.9 °F 22.8 °F 23.0 °F 72% 30.10 in 10.0 mi NNW 9.2 mph - N/A   Overcast
5:01 AM 30.0 °F 26.5 °F 23.0 °F 75% 30.09 in 10.0 mi Variable 3.5 mph - N/A   Overcast
6:01 AM 30.0 °F 25.2 °F 23.0 °F 75% 30.09 in 10.0 mi North 4.6 mph - N/A   Overcast
7:01 AM 28.9 °F - 23.0 °F 78% 30.08 in 10.0 mi Calm Calm - N/A   Overcast
8:01 AM 28.9 °F 22.8 °F 21.9 °F 75% 30.07 in 10.0 mi North 5.8 mph - N/A   Overcast
9:01 AM 28.9 °F 21.9 °F 21.9 °F 75% 30.06 in 10.0 mi North 6.9 mph - N/A   Overcast
10:01 AM 30.0 °F 22.4 °F 21.9 °F 72% 30.06 in 10.0 mi North 8.1 mph - N/A   Overcast
11:01 AM 28.9 °F 23.9 °F 21.9 °F 75% 30.05 in 10.0 mi North 4.6 mph - N/A   Overcast
12:01 PM 30.9 °F 22.8 °F 23.0 °F 72% 30.04 in 10.0 mi NNW 9.2 mph 16.1 mph N/A   Overcast
1:01 PM 34.0 °F 26.0 °F 21.9 °F 61% 30.04 in 10.0 mi North 10.4 mph - N/A   Overcast
2:01 PM 36.0 °F 28.0 °F 23.0 °F 59% 30.03 in 10.0 mi NNW 11.5 mph - N/A   Overcast
3:01 PM 37.0 °F 29.8 °F 23.0 °F 57% 30.02 in 10.0 mi NNW 10.4 mph - N/A   Overcast
4:01 PM 37.9 °F 31.5 °F 24.1 °F 57% 30.00 in 10.0 mi NNW 9.2 mph - N/A   Overcast
5:01 PM 37.9 °F 34.4 °F 24.1 °F 57% 29.99 in 10.0 mi NNW 4.6 mph - N/A   Overcast
6:01 PM 37.0 °F 34.5 °F 25.0 °F 62% 29.97 in 10.0 mi South 3.5 mph - N/A   Overcast
7:01 PM 37.0 °F 33.3 °F 25.0 °F 62% 29.97 in 10.0 mi SW 4.6 mph - N/A   Overcast
9:01 PM 36.0 °F - 24.1 °F 62% 29.97 in 10.0 mi Calm Calm - N/A   Overcast
10:01 PM 35.1 °F - 24.1 °F 64% 29.97 in 10.0 mi Calm Calm - N/A   Overcast
11:01 PM 33.1 °F 28.7 °F 24.1 °F 70% 29.96 in 10.0 mi NNW 4.6 mph - N/A   Overcast